Tracking 29892 objects as of 21-Nov-2024
HD Live streaming from Space Station
objects crossing your sky now

STARLINK-3691

Track STARLINK-3691 now!
10-day predictions
STARLINK-3691 is classified as:


NORAD ID: 51960
Int'l Code: 2022-025E
Perigee: 553.2 km
Apogee: 555.4 km
Inclination: 53.1 °
Period: 95.6 minutes
Semi major axis: 6925 km
RCS: Unknown
Launch date: March 9, 2022
Source: United States (US)
Launch site: AIR FORCE EASTERN TEST RANGE (AFETR)
Your satellite tracking list
Your tracking list is empty




NASA's NSSDC Master Catalog

Two Line Element Set (TLE):
1 51960U 22025E   24325.55113267 -.00000974  00000-0 -46503-4 0  9992
2 51960  53.0546   4.3359 0001582  84.0525 276.0644 15.06403089149380
Source of the keplerian elements: AFSPC